RH
63 74 77 78 85 72 58 56 68 96 98 71 100 100 100 100 100 100 100 100 98 100 80 100 100 100 100 100 100 100 100 87 64 96 84 93 88 79 72 66 72 73 66
51 50 58 60 68 77 67 61 85 99 93 100 99 100 100 100 100 100 100 98 100 95 100 100 100 100 100 100 100 79 60 62 70 70 89 97 90 79 77 80 77 76 68
49 56 68 70 69 67 64 66 100 84 86 97 100 100 100 100 100 100 100 98 72 93 100 100 100 100 100 95 76 55 59 74 84 92 100 94 80 81 78 78 82 88 79
41 48 57 72 88 80 78 89 78 83 100 100 100 100 100 100 100 95 64 85 100 100 100 100 100 100 85 65 66 75 76 83 91 99 90 90 85 79 74 76 80 81 83
41 44 44 56 68 91 85 77 85 72 73 99 92 100 100 100 100 97 100 100 100 100 100 100 90 72 64 72 70 73 91 82 92 90 92 89 80 70 76 70 69 74 88
32 40 46 46 59 85 100 86 99 100 100 86 73 78 98 100 100 100 100 100 100 97 66 66 54 52 57 60 75 83 84 84 89 96 94 86 82 81 70 80 70 66 63
35 31 35 52 69 76 89 99 100 100 100 100 100 100 100 100 100 95 81 59 46 42 47 53 50 52 58 83 85 78 75 77 75 78 91 93 85 72 72 68 71 84 84
41 40 38 59 80 97 100 100 100 100 95 83 66 52 48 44 46 46 48 48 50 52 55 55 55 58 66 70 70 79 76 78 82 86 83 83 78 74 74 72 71 70 66
36 40 44 39 39 44 47 49 51 46 44 41 42 39 39 45 47 43 46 52 61 67 75 79 83 81 78 79 83 86 92 93 90 80 77 75 77 78 77 61 49 56 52
53 44 36 48 51 56 55 57 50 46 43 48 48 49 50 50 51 53 52 51 56 63 70 73 83 91 93 87 85 92 95 93 84 75 75 86 84 80 85 73 57 60 48
78 64 55 49 42 44 40 38 40 42 43 45 44 43 45 51 52 51 51 57 64 70 74 75 84 91 91 100 97 95 100 93 87 88 86 86 88 89 88 84 76 54 36
99 92 68 64 71 60 51 46 42 45 52 58 63 61 60 59 53 52 57 59 65 72 79 86 93 90 95 99 89 89 95 89 91 87 84 87 89 84 89 80 75 58 30
100 100 99 84 86 80 78 75 62 49 55 62 68 68 70 65 67 69 67 60 70 76 75 94 100 100 100 100 96 83 95 97 90 80 88 86 80 86 81 75 61 30 18
100 100 100 100 86 85 89 81 80 78 77 71 64 64 72 71 70 70 79 81 79 80 79 96 97 97 100 100 95 90 87 87 80 79 73 83 84 77 74 51 25 13 9
100 100 95 99 100 92 84 76 84 89 89 80 69 59 68 72 77 95 92 90 80 79 85 98 100 100 100 100 86 69 77 73 66 63 79 71 60 59 45 19 11 7 6
100 100 100 97 100 98 78 70 67 86 96 93 82 61 69 78 98 100 94 89 81 90 100 100 100 100 94 69 67 67 61 58 64 73 63 51 46 29 17 11 7 5 4
100 100 100 100 83 69 68 76 86 100 100 95 75 67 76 77 100 100 98 88 90 100 100 100 100 99 80 66 58 53 57 66 64 55 48 41 23 14 10 7 5 4 4
100 100 96 80 82 83 87 85 100 98 91 82 75 66 68 99 96 90 91 97 100 100 100 100 95 76 59 50 47 50 54 52 44 38 32 17 10 8 6 5 4 4 3
100 100 100 100 99 94 85 100 95 92 99 84 62 58 75 83 89 97 97 94 100 100 99 76 59 50 44 44 47 43 42 34 29 22 12 9 7 5 4 4 4 3 3
100 100 100 99 93 90 83 82 98 100 96 68 68 83 99 93 95 100 99 100 100 92 63 50 43 42 44 40 37 34 29 23 15 10 7 6 4 3 3 4 3 2 2
100 83 80 74 70 88 93 100 100 98 65 70 86 100 100 99 97 95 98 99 73 50 44 39 40 37 32 31 28 23 17 10 8 6 5 4 3 3 4 3 2 2 2
82 73 76 94 98 99 98 96 78 70 82 99 100 99 88 84 87 85 70 62 52 40 34 34 29 26 22 20 16 10 8 6 5 4 4 3 3 3 3 2 2 2 2
96 95 92 94 95 91 75 72 84 94 100 100 91 82 80 77 58 55 47 33 29 28 28 25 22 18 15 11 7 6 5 4 3 3 3 3 3 3 2 2 2 2 2
94 96 83 64 72 81 82 88 100 100 99 82 79 70 61 49 40 28 27 26 25 21 18 15 12 9 6 5 4 3 2 3 3 3 3 2 2 2 2 2 2 2 2
78 79 72 72 76 84 96 98 93 81 74 72 58 45 34 26 24 23 22 18 16 14 10 6 5 5 4 3 2 2 2 3 3 2 2 2 2 2 2 2 2 2 2
73 73 76 77 78 78 74 64 60 56 48 39 29 23 22 20 18 16 12 10 7 5 4 4 3 3 2 2 2 2 2 2 2 2 2 2 2 2 2 2 2 2 2
Wind_Speed
51 46 44 42 40 41 40 35 36 36 38 33 37 39 39 46 55 59 60 65 65 72 83 78 85 87 88 89 92 97 95 95 88 83 87 90 92 93 98 102 101 104 105
40 47 52 53 53 52 50 45 43 43 37 42 44 45 54 50 61 69 71 74 75 80 83 81 85 98 99 99 98 95 87 83 86 89 90 90 91 97 98 99 100 101 105
36 39 45 49 49 51 48 43 48 48 43 45 49 50 60 66 66 71 71 77 85 85 91 94 97 102 103 94 95 90 88 88 90 86 85 90 94 96 94 96 97 99 103
31 32 37 44 47 50 48 45 50 48 48 52 59 58 59 69 78 85 80 85 90 91 94 100 101 101 98 95 94 90 91 87 85 86 92 92 91 96 96 96 96 101 102
32 32 32 39 42 46 47 54 56 52 53 57 60 64 66 72 76 84 90 93 96 100 104 106 102 98 94 94 89 85 81 84 88 90 91 95 101 103 99 100 98 97 101
30 32 31 35 40 45 52 54 54 56 60 65 65 70 74 78 83 88 93 99 101 101 97 95 93 89 85 83 80 83 85 88 87 90 94 97 101 99 99 101 102 103 102
25 25 29 34 41 47 49 54 61 63 64 65 69 72 75 79 84 89 91 91 91 79 74 74 74 74 78 81 83 82 78 85 93 93 95 100 96 101 101 102 102 107 110
31 30 31 34 39 41 43 46 50 54 56 60 60 54 49 53 54 52 52 51 52 55 59 63 68 72 75 78 82 85 90 95 97 98 100 99 99 100 101 104 105 109 109
34 34 34 31 33 38 41 43 45 48 49 51 54 56 55 56 58 59 58 59 60 61 62 64 66 69 72 74 76 81 86 92 95 94 94 97 99 102 107 107 108 113 114
42 37 36 41 38 37 43 47 48 50 53 55 56 56 58 59 61 64 65 66 65 67 69 70 74 76 77 79 82 85 89 93 95 97 96 98 102 105 112 116 116 118 120
48 46 41 41 43 43 47 46 50 54 59 61 63 64 64 65 65 67 69 70 70 71 74 76 81 84 88 87 90 91 91 93 95 94 96 98 103 109 115 119 121 122 119
49 48 48 47 48 50 53 54 55 56 57 59 63 67 69 70 71 73 73 76 77 77 78 80 85 89 94 93 93 94 94 96 96 97 100 102 106 111 117 119 124 126 122
53 51 52 52 53 57 58 58 61 63 65 67 68 70 72 73 74 77 79 80 81 83 83 84 90 96 98 97 99 99 100 101 101 102 103 106 110 116 119 122 124 120 114
53 54 56 56 60 62 63 64 66 68 71 74 74 74 75 75 79 81 83 86 88 88 89 91 97 103 102 102 105 106 106 105 104 105 107 112 115 117 121 121 117 109 103
60 57 59 61 63 66 67 71 71 74 77 81 81 81 81 83 85 89 90 91 93 93 95 98 103 106 107 107 109 110 108 108 107 108 114 115 116 119 119 114 108 100 95
66 64 63 65 67 71 74 76 78 81 85 87 88 87 85 88 89 95 96 97 97 97 100 105 109 110 111 113 114 112 111 110 112 116 117 117 118 115 112 108 100 95 89
69 68 68 71 73 77 81 82 84 86 90 91 92 92 92 94 95 99 100 100 99 103 106 111 115 115 117 118 117 115 113 114 117 118 119 119 114 110 105 99 95 88 83
74 76 75 79 82 83 85 87 87 92 93 95 97 96 98 98 101 103 102 102 105 109 114 117 119 119 121 119 116 115 114 117 118 118 118 113 108 102 97 93 88 81 77
79 78 80 82 83 85 86 88 92 94 97 99 101 102 101 104 105 105 106 109 113 117 121 122 123 124 119 117 115 115 117 118 117 116 111 107 100 95 91 86 81 75 70
76 79 82 86 88 92 93 94 96 100 101 106 105 104 107 108 109 111 114 117 121 124 126 127 125 121 119 115 115 117 117 117 114 108 103 97 92 85 81 79 73 68 64
82 85 87 91 95 94 96 96 101 104 108 104 106 108 109 111 113 116 118 122 125 127 127 123 121 118 114 115 116 116 114 110 105 100 96 92 87 80 75 71 67 63 60
87 90 94 94 93 95 99 103 103 107 105 107 110 113 115 116 118 121 123 125 128 125 121 118 116 115 115 115 114 111 107 102 97 93 89 84 78 72 69 65 61 58 55
89 91 93 95 97 100 102 104 106 107 109 113 118 118 118 121 123 125 125 124 120 118 116 115 115 115 114 111 107 102 98 93 89 86 81 76 70 66 63 59 57 53 50
92 93 98 102 100 102 106 109 109 113 117 121 119 121 123 124 124 122 120 117 116 115 114 113 112 109 106 102 97 93 88 84 80 76 72 68 64 60 58 55 52 48 45
102 101 103 106 107 107 108 111 115 119 119 121 122 124 123 121 119 116 114 114 113 113 110 107 103 100 96 93 88 84 79 75 72 69 65 62 58 55 53 50 47 44 41
104 105 106 108 109 110 112 112 113 117 120 121 122 120 118 115 113 113 111 110 107 104 100 97 94 91 88 84 80 76 72 69 66 62 59 55 53 51 48 45 42 39 37
Wind_Direction
252 255 254 252 253 255 260 260 258 263 267 278 286 279 281 276 279 277 278 282 287 289 290 289 292 293 293 293 296 298 297 298 299 298 299 298 299 300 301 302 303 304 306
258 253 253 254 254 257 258 255 263 263 261 269 268 272 264 270 264 265 271 275 286 289 288 287 286 289 292 293 296 298 297 299 298 298 300 302 299 301 302 303 306 306 307
263 260 254 256 255 257 256 251 261 267 264 264 265 270 258 263 268 266 267 272 279 282 284 285 286 289 293 295 295 294 298 298 298 300 298 298 299 301 305 307 310 309 308
259 258 261 254 254 251 242 247 256 259 261 269 267 265 270 271 267 268 269 275 281 282 283 285 288 290 291 292 294 296 296 298 299 297 299 300 301 301 305 306 308 311 314
275 267 255 258 256 255 255 254 256 260 265 270 262 258 265 272 273 271 272 275 278 282 284 286 288 291 292 293 294 297 297 297 299 299 296 295 299 299 304 305 306 310 315
276 267 262 258 260 261 263 263 265 266 267 271 273 271 273 272 272 272 274 279 283 285 285 287 290 293 294 296 297 298 299 299 300 297 294 296 297 303 304 307 308 310 311
303 286 273 266 263 262 262 262 264 267 270 270 270 271 273 274 274 277 279 281 283 288 290 292 295 297 299 297 297 295 295 298 301 301 299 297 300 302 303 304 310 316 317
305 295 284 270 264 263 263 262 263 265 267 269 272 273 274 277 282 289 295 299 301 303 305 306 305 303 302 302 299 294 295 298 299 299 298 302 304 305 308 312 314 315 317
301 293 286 281 267 258 257 260 262 266 271 273 275 276 281 285 291 292 299 302 306 309 312 313 311 312 306 302 302 300 298 297 299 300 302 305 309 313 314 313 313 317 317
294 292 292 283 274 271 277 272 272 272 275 277 281 285 290 294 297 299 302 302 306 305 306 309 311 312 312 308 307 306 304 303 303 305 307 310 314 316 318 318 318 317 316
285 285 286 289 288 292 292 296 291 289 287 288 287 288 292 295 299 301 303 306 305 306 307 309 311 315 315 311 309 307 305 305 305 305 309 312 315 318 319 318 317 316 316
274 279 283 286 287 290 292 298 299 302 303 301 299 297 296 296 298 301 304 305 307 309 308 309 311 313 313 311 310 309 306 305 306 307 311 313 315 318 318 317 317 316 315
272 275 279 283 287 290 291 295 299 302 304 305 302 302 303 303 301 304 305 307 307 308 309 309 311 312 312 311 312 310 309 309 308 310 313 315 317 317 317 316 315 314 313
270 272 278 282 287 289 292 296 298 300 303 305 302 302 306 306 307 308 309 309 307 308 309 310 311 313 312 311 312 311 309 308 309 313 315 317 315 316 316 314 313 312 311
272 275 280 284 287 288 292 296 298 299 301 303 303 303 304 306 309 310 309 308 308 308 309 310 312 313 312 311 309 309 308 308 311 315 315 314 315 315 314 313 312 310 310
273 276 278 281 284 288 292 296 298 297 300 301 302 303 304 306 307 308 308 308 308 309 309 310 311 311 310 310 310 308 309 312 314 314 314 314 314 314 313 311 310 310 310
270 273 276 279 284 288 291 294 294 296 297 299 301 302 302 305 305 306 307 307 307 309 309 310 310 310 310 309 308 308 310 312 312 313 313 313 313 312 311 310 309 309 309
267 271 276 281 284 288 289 292 292 294 296 298 301 300 302 303 304 305 306 307 308 308 309 309 309 308 307 307 307 309 310 311 311 312 312 312 311 310 310 310 308 308 307
271 275 279 282 283 285 288 290 290 293 295 297 299 299 302 305 306 306 306 307 307 308 308 307 305 305 306 306 307 309 310 311 311 310 310 310 309 310 310 308 307 307 306
274 276 278 281 285 286 288 290 291 295 297 298 300 303 304 305 306 306 306 306 306 306 305 304 305 305 305 306 308 309 310 309 309 308 308 307 307 307 308 306 305 305 304
273 276 279 281 284 285 287 290 291 292 293 298 301 302 302 303 302 302 303 303 302 302 303 303 302 303 305 307 308 308 308 307 307 307 307 308 307 307 306 304 303 303 302
274 277 282 284 286 288 289 289 290 293 297 299 299 299 299 299 300 299 299 300 300 301 300 301 303 305 306 307 307 307 306 306 306 306 306 305 305 305 303 303 301 301 300
277 278 282 285 285 285 286 289 292 295 296 296 296 296 297 297 297 298 299 299 299 300 302 303 305 306 306 305 305 304 304 304 304 305 304 304 304 303 302 301 300 299 299
281 282 283 285 286 286 288 291 292 293 293 294 294 295 295 295 297 298 299 300 301 302 303 304 304 304 304 303 303 304 304 304 303 303 302 303 303 302 300 299 299 297 297
282 283 284 286 288 289 289 289 290 291 292 293 292 293 295 296 297 299 300 301 302 303 303 302 302 302 302 302 303 303 303 302 303 302 302 301 301 299 299 298 297 295 294
281 284 286 288 288 288 289 289 290 290 290 291 293 295 296 297 299 300 301 301 301 301 301 302 302 302 302 303 303 302 302 302 302 301 300 299 299 297 297 296 295 293 291